TimeCDT,TemperatureF,Dew PointF,Humidity,Sea Level PressureIn,VisibilityMPH,Wind Direction,Wind SpeedMPH,Gust SpeedMPH,PrecipitationIn,Events,Conditions,WindDirDegrees,DateUTC
12:15 AM,84.6,63.5,49,30.06,10.0,SE,3.5,-,N/A,,Clear,130,2013-07-25 05:15:00
12:35 AM,83.8,64.0,51,30.06,10.0,SE,3.5,-,N/A,,Clear,130,2013-07-25 05:35:00
12:55 AM,83.7,64.4,52,30.06,10.0,ESE,4.6,-,N/A,,Clear,120,2013-07-25 05:55:00
1:15 AM,82.6,64.4,54,30.05,10.0,SE,4.6,-,N/A,,Clear,130,2013-07-25 06:15:00
1:35 AM,82.4,64.4,54,30.05,10.0,ESE,3.5,-,N/A,,Clear,110,2013-07-25 06:35:00
1:55 AM,81.5,64.6,56,30.06,10.0,Calm,Calm,-,N/A,,Clear,0,2013-07-25 06:55:00
2:15 AM,80.8,64.6,58,30.06,10.0,Calm,Calm,-,N/A,,Clear,0,2013-07-25 07:15:00
2:35 AM,79.7,64.9,61,30.06,10.0,Calm,Calm,-,N/A,,Clear,0,2013-07-25 07:35:00
2:55 AM,79.7,64.9,61,30.06,10.0,Calm,Calm,-,N/A,,Clear,0,2013-07-25 07:55:00
3:15 AM,79.7,64.8,60,30.06,10.0,Calm,Calm,-,N/A,,Clear,0,2013-07-25 08:15:00
3:35 AM,79.2,64.9,62,30.06,10.0,Calm,Calm,-,N/A,,Clear,0,2013-07-25 08:35:00
3:55 AM,79.2,64.4,60,30.06,10.0,Calm,Calm,-,N/A,,Clear,0,2013-07-25 08:55:00
4:15 AM,79.0,64.8,62,30.07,10.0,Calm,Calm,-,N/A,,Clear,0,2013-07-25 09:15:00
4:35 AM,78.1,64.9,64,30.07,10.0,Calm,Calm,-,N/A,,Clear,0,2013-07-25 09:35:00
4:55 AM,77.0,65.3,67,30.07,10.0,Calm,Calm,-,N/A,,Clear,0,2013-07-25 09:55:00
5:15 AM,76.6,65.5,68,30.08,10.0,Calm,Calm,-,N/A,,Clear,0,2013-07-25 10:15:00
5:35 AM,77.0,65.5,67,30.08,10.0,Calm,Calm,-,N/A,,Clear,0,2013-07-25 10:35:00
5:55 AM,77.4,65.3,66,30.08,10.0,Calm,Calm,-,N/A,,Clear,0,2013-07-25 10:55:00
6:15 AM,76.1,65.3,69,30.09,10.0,Calm,Calm,-,N/A,,Clear,0,2013-07-25 11:15:00
6:35 AM,76.1,65.3,69,30.10,10.0,Calm,Calm,-,N/A,,Clear,0,2013-07-25 11:35:00
6:55 AM,76.3,64.6,67,30.10,10.0,Calm,Calm,-,N/A,,Clear,0,2013-07-25 11:55:00
7:15 AM,76.8,64.6,66,30.10,10.0,Calm,Calm,-,N/A,,Clear,0,2013-07-25 12:15:00
7:35 AM,76.6,65.3,68,30.12,10.0,Calm,Calm,-,N/A,,Clear,0,2013-07-25 12:35:00
7:55 AM,77.9,65.3,65,30.12,10.0,Calm,Calm,-,N/A,,Clear,0,2013-07-25 12:55:00
8:15 AM,78.8,65.5,64,30.11,10.0,Calm,Calm,-,N/A,,Clear,0,2013-07-25 13:15:00
8:35 AM,80.2,64.8,59,30.12,10.0,Calm,Calm,-,N/A,,Clear,0,2013-07-25 13:35:00
8:55 AM,81.9,63.9,54,30.12,10.0,WSW,3.5,-,N/A,,Clear,250,2013-07-25 13:55:00
9:15 AM,82.9,62.8,50,30.12,10.0,WSW,4.6,-,N/A,,Clear,240,2013-07-25 14:15:00
9:35 AM,84.0,61.7,47,30.13,10.0,SW,5.8,-,N/A,,Clear,220,2013-07-25 14:35:00
9:55 AM,85.3,61.5,45,30.13,10.0,SSW,5.8,-,N/A,,Clear,210,2013-07-25 14:55:00
10:15 AM,86.0,60.1,41,30.14,10.0,SW,6.9,-,N/A,,Clear,220,2013-07-25 15:15:00
10:35 AM,86.5,60.6,42,30.14,10.0,WSW,8.1,-,N/A,,Clear,240,2013-07-25 15:35:00
10:55 AM,87.6,59.9,39,30.14,10.0,SW,6.9,-,N/A,,Clear,230,2013-07-25 15:55:00
11:15 AM,87.8,59.4,38,30.14,10.0,SSW,5.8,-,N/A,,Clear,210,2013-07-25 16:15:00
11:35 AM,88.9,59.5,37,30.14,10.0,West,8.1,-,N/A,,Clear,280,2013-07-25 16:35:00
11:55 AM,89.8,58.1,34,30.14,10.0,SSW,6.9,-,N/A,,Clear,200,2013-07-25 16:55:00
12:15 PM,90.3,58.3,34,30.14,10.0,WSW,5.8,-,N/A,,Clear,250,2013-07-25 17:15:00
12:35 PM,89.4,58.3,35,30.14,10.0,Calm,Calm,-,N/A,,Clear,0,2013-07-25 17:35:00
12:55 PM,92.5,57.7,31,30.14,10.0,SE,4.6,-,N/A,,Scattered Clouds,140,2013-07-25 17:55:00
1:15 PM,91.9,57.4,31,30.13,10.0,Calm,Calm,-,N/A,,Scattered Clouds,0,2013-07-25 18:15:00
1:35 PM,91.6,57.6,32,30.12,10.0,South,5.8,-,N/A,,Scattered Clouds,190,2013-07-25 18:35:00
1:55 PM,91.4,57.6,32,30.12,10.0,WSW,3.5,-,N/A,,Mostly Cloudy,250,2013-07-25 18:55:00
2:15 PM,93.2,56.8,29,30.10,10.0,SE,6.9,-,N/A,,Scattered Clouds,130,2013-07-25 19:15:00
2:35 PM,94.6,57.4,29,30.10,10.0,SE,8.1,-,N/A,,Clear,130,2013-07-25 19:35:00
2:55 PM,94.1,57.4,29,30.09,10.0,SSE,8.1,-,N/A,,Scattered Clouds,160,2013-07-25 19:55:00
3:15 PM,95.5,57.6,28,30.08,10.0,SSE,11.5,-,N/A,,Scattered Clouds,160,2013-07-25 20:15:00
3:35 PM,95.9,57.0,27,30.08,10.0,SE,4.6,-,N/A,,Scattered Clouds,140,2013-07-25 20:35:00
3:55 PM,95.5,56.3,27,30.07,10.0,SSE,10.4,16.1,N/A,,Scattered Clouds,160,2013-07-25 20:55:00
4:15 PM,96.1,55.8,26,30.07,10.0,ESE,11.5,17.3,N/A,,Scattered Clouds,120,2013-07-25 21:15:00
4:35 PM,97.5,55.2,24,30.06,10.0,ESE,11.5,17.3,N/A,,Clear,120,2013-07-25 21:35:00
4:55 PM,95.2,55.6,26,30.05,10.0,SSE,8.1,-,N/A,,Scattered Clouds,160,2013-07-25 21:55:00
5:15 PM,95.4,55.4,26,30.04,10.0,SSE,10.4,16.1,N/A,,Scattered Clouds,150,2013-07-25 22:15:00
5:35 PM,96.8,54.9,24,30.04,10.0,SE,6.9,-,N/A,,Scattered Clouds,130,2013-07-25 22:35:00
5:55 PM,95.9,54.1,24,30.03,10.0,South,8.1,-,N/A,,Clear,170,2013-07-25 22:55:00
6:15 PM,95.0,55.4,26,30.03,10.0,SSE,10.4,16.1,N/A,,Scattered Clouds,150,2013-07-25 23:15:00
6:35 PM,96.3,55.0,25,30.03,10.0,SE,12.7,-,N/A,,Scattered Clouds,140,2013-07-25 23:35:00
6:55 PM,95.2,55.2,26,30.03,10.0,SE,11.5,18.4,N/A,,Clear,140,2013-07-25 23:55:00
7:15 PM,94.5,54.5,26,30.02,10.0,SSE,15.0,18.4,N/A,,Clear,150,2013-07-26 00:15:00
7:35 PM,94.3,54.1,26,30.02,10.0,SSE,12.7,18.4,N/A,,Clear,160,2013-07-26 00:35:00
7:55 PM,93.9,54.7,27,30.02,10.0,SSE,13.8,-,N/A,,Clear,150,2013-07-26 00:55:00
8:15 PM,93.0,54.5,27,30.03,10.0,SE,11.5,-,N/A,,Clear,140,2013-07-26 01:15:00
8:35 PM,92.3,54.5,28,30.04,10.0,SE,10.4,-,N/A,,Clear,140,2013-07-26 01:35:00
8:55 PM,91.6,54.9,29,30.04,10.0,SSE,9.2,-,N/A,,Clear,150,2013-07-26 01:55:00
9:15 PM,91.0,55.4,30,30.05,10.0,SE,8.1,-,N/A,,Clear,140,2013-07-26 02:15:00
9:35 PM,90.0,56.5,32,30.06,10.0,SE,8.1,-,N/A,,Clear,140,2013-07-26 02:35:00
9:55 PM,89.6,56.7,33,30.07,10.0,SSE,8.1,-,N/A,,Clear,150,2013-07-26 02:55:00
10:15 PM,88.9,56.8,34,30.07,10.0,SE,9.2,-,N/A,,Clear,140,2013-07-26 03:15:00
10:35 PM,88.7,56.5,33,30.07,10.0,SSE,5.8,-,N/A,,Clear,150,2013-07-26 03:35:00
10:55 PM,88.7,56.3,33,30.07,10.0,SSE,8.1,-,N/A,,Clear,160,2013-07-26 03:55:00
11:15 PM,87.8,56.3,34,30.08,10.0,SSE,6.9,-,N/A,,Clear,160,2013-07-26 04:15:00
11:35 PM,87.1,57.0,36,30.07,10.0,South,6.9,-,N/A,,Clear,170,2013-07-26 04:35:00
11:55 PM,86.0,57.0,37,30.07,10.0,South,8.1,-,N/A,,Clear,170,2013-07-26 04:55:00